Weather Roundup
Issued by NWS

Home | Current Version | Previous Version | Graphics & Text | Print | Product List | Glossary Off
Versions: 1 2 3 4 5 6 7 8 9 10 11 12 13 14 15 16 17 18 19 20 21 22 23 24 25 26 27 28 29 30 31 32 33 34 35 36 37 38 39 40 41 42 43 44 45 46 47 48 49 50

137
NZUS93 KARX 291610
HRRWXR

CURRENT HOURLY OBSERVATIONS ACROSS
MUCH OF THE UPPER MISSISSIPPI VALLEY
NATIONAL WEATHER SERVICE LA CROSSE WI
1100 AM CDT MON MAY 29 2017


...SOUTHEAST MINNESOTA...


CITY           SKY/WX    TMP DP  RH WIND       PRES   REMARKS
ROCHESTER      CLOUDY    58  47  66 W18G28    29.84S
ROCHESTER/MAYO CLOUDY    58  46  63 W13G20    29.83S
WINONA         CLOUDY    61  45  55 W14G22    29.82R
AUSTIN         CLOUDY    57  45  62 W15G26    29.86R
ALBERT LEA     CLOUDY    63  46  55 W10G20    29.86S
DODGE CENTER   CLOUDY    55  46  71 W17       29.84S
PRESTON        CLOUDY    57  45  63 NW17G24   29.85S
OWATONNA       PTSUNNY   57  46  67 W16G24    29.85R
FARIBAULT      CLOUDY    61  48  63 W12G24    29.84R
$$

...ELSEWHERE IN MINNESOTA...


CITY           SKY/WX    TMP DP  RH WIND       PRES   REMARKS
MINNEAPOLIS    CLOUDY    59  48  67 NW15G21   29.81R
INTNL FALLS    CLOUDY    51  48  89 W12       29.69R
DULUTH         CLOUDY    54  48  80 W16       29.68R
RED WING       CLOUDY    57  46  67 W14G22    29.80R
REDWOOD FALLS  LGT RAIN  55  48  77 W14       29.89R
MANKATO        CLOUDY    58  47  66 W15       29.87R
WORTHINGTON    CLOUDY    58  47  66 W21       29.94R
FAIRMONT       CLOUDY    61  46  57 W16G25    29.89S
$$

...SOUTHWEST WISCONSIN...


CITY           SKY/WX    TMP DP  RH WIND       PRES   REMARKS
LA CROSSE      CLOUDY    62  49  62 W15       29.81R
PRAIRIE DU CHI PTSUNNY   65  44  47 W15G25    29.84R
BOSCOBEL       PTSUNNY   65  47  52 W13G22    29.83R
LONE ROCK      MOSUNNY   66  45  46 W21G29    29.81R
PLATTEVILLE    MOSUNNY   65  49  56 W22       29.84S
FORT MC COY    CLOUDY    58  48  69 W9        29.81R
CAMP DOUGLAS   PTSUNNY   61  49  63 W17       29.78R
MAUSTON-NEW LI CLOUDY    61  48  63 W15G21    29.78S
VIROQUA        CLOUDY    58  47  67 N8        29.82R
WIS DELLS      PTSUNNY   60  45  57 W13G22    29.79R
$$

...ELSEWHERE IN WISCONSIN...


CITY           SKY/WX    TMP DP  RH WIND       PRES   REMARKS
MILWAUKEE      MOSUNNY   70  43  37 W21G32    29.76R
MADISON        PTSUNNY   64  47  53 W12G22    29.78R
GREEN BAY      MOSUNNY   64  53  67 W20G26    29.69S
EAU CLAIRE     CLOUDY    57  48  72 W13       29.76R
BLACK RVR FLS  CLOUDY    59  46  61 W15G23    29.79R
MEDFORD        CLOUDY    53  51  92 W14       29.73R
WAUSAU         LGT RAIN  56  50  80 W12       29.71S
WIS RAPIDS     CLOUDY    58  51  78 W13       29.77R
MARSHFIELD     CLOUDY    58  51  78 W14G25    29.74S
RICE LAKE      CLOUDY    56  48  74 W17       29.76S
$$

...NORTHEAST IOWA...


CITY           SKY/WX    TMP DP  RH WIND       PRES   REMARKS
WATERLOO       MOSUNNY   65  46  50 W16G23    29.88S
DUBUQUE        SUNNY     65  47  52 NW23G32   29.86R
DECORAH        CLOUDY    59  45  58 W15G22    29.85R
MASON CITY     CLOUDY    61  44  53 W20G26    29.90S
CHARLES CITY   PTSUNNY   64  43  45 NW24      29.88S
OELWEIN        PTSUNNY   63  46  55 NW24      29.87S
$$

...ELSEWHERE IN IOWA...


CITY           SKY/WX    TMP DP  RH WIND       PRES   REMARKS
DES MOINES     MOSUNNY   71  44  37 NW13      29.94R
IOWA CITY      MOSUNNY   70  47  43 W18       29.91S
FORT DODGE     PTSUNNY   64  45  48 W12G23    29.94R
MARSHALLTOWN   SUNNY     68  46  45 W21G35    29.90S
CEDAR RAPIDS   SUNNY     68  48  48 NW23G29   29.89R
$$

...NORTHERN ILLINOIS...


CITY           SKY/WX    TMP DP  RH WIND       PRES   REMARKS
CHICAGO-OHARE  MOSUNNY   72  46  39 W17G26    29.81S
CHICAGO-MIDWAY MOSUNNY   74  46  36 W14G26    29.82S
MOLINE         SUNNY     70  47  43 NW13      29.88R
ROCKFORD       MOSUNNY   70  48  45 NW18      29.84R
PEORIA         CLOUDY    74  48  39 SW10      29.89S
$$

NOTE: "FAIR" INDICATES FEW OR NO CLOUDS BELOW 12,000 FEET WITH NO
SIGNIFICANT WEATHER AND/OR OBSTRUCTIONS TO VISIBILITY. WIND
SPEEDS ARE IN MILES-PER-HOUR.




USA.gov is the U.S. government's official web portal to all federal, state and local government web resources and services.